Location: Banska Bystrica
(48.7330°N, 19.1500°E)
Time: 10:19:04
(UTC+02:00)

Tiangong 2 - Pass Details

Date: 27 May 2019
Orbit: 376 x 388 km, 42.8° (Epoch: 26 June)

Event Time Altitude Azimuth Distance (km) Brightness Sun altitude
Rises 22:25:18 0° 262° (W) 2,235 5.3 -13.7°
Reaches altitude 10° 22:28:10 10° 233° (SW) 1,380 3.8 -13.9°
Enters shadow 22:29:27 13° 209° (SSW) 1,220 3.3 -14.0°
